Wind_Speed
17 17 16 16 16 16 17 18 19 19 19 19 19 19 19 19 20 19 20 20 20 21 21 21 21 20 21 22 22 22 23 24 23 23 23 23 23 24 23 23 22 22 21 21
17 17 17 17 16 17 18 18 18 19 19 19 18 18 17 18 18 19 20 19 19 19 19 20 20 20 21 22 22 22 22 23 23 23 23 23 23 23 22 22 21 21 21 21
17 17 17 17 16 17 17 17 18 19 18 17 17 17 17 17 17 18 18 18 18 18 19 20 20 21 21 22 22 21 21 22 21 21 22 22 22 21 21 20 20 20 21 21
17 17 18 16 15 15 16 16 16 17 17 16 15 15 16 16 16 16 17 17 18 19 19 19 20 20 20 21 21 20 19 19 19 19 19 20 19 19 20 20 20 20 19 19
16 16 16 15 14 14 15 15 16 16 15 15 14 14 15 15 15 15 16 16 17 17 17 17 17 17 18 18 18 18 18 17 17 18 17 17 18 18 18 18 18 18 18 17
15 16 15 14 14 15 15 15 15 14 14 13 13 14 14 15 15 15 15 15 16 16 15 15 16 16 17 17 17 17 17 17 16 16 15 15 15 16 16 16 17 17 16 15
14 15 14 14 14 14 14 14 14 14 14 14 14 14 14 14 14 14 14 14 13 13 14 14 15 15 15 15 15 15 15 15 15 14 14 14 14 14 14 14 14 14 13 12
13 13 13 13 13 13 14 14 14 14 13 13 14 14 13 13 13 12 11 11 12 13 13 13 13 13 12 12 12 12 12 13 12 12 12 12 11 11 12 11 11 10 10 10
11 11 12 12 12 12 13 13 14 13 13 13 13 12 12 11 10 9 9 9 10 11 11 11 10 10 10 10 9 9 10 9 9 10 9 10 9 10 10 9 9 8 8 8
11 11 11 11 11 11 12 12 12 12 12 12 11 10 10 8 8 7 7 8 8 9 9 9 8 8 9 8 8 8 8 8 8 8 8 8 8 8 8 8 8 8 7 7
10 10 10 11 11 10 10 11 11 11 11 11 10 9 8 7 7 6 7 7 8 8 8 8 7 8 7 8 8 7 7 7 8 8 7 7 7 7 7 7 6 6 6 6
9 9 9 9 9 9 10 10 11 11 11 10 8 7 7 6 6 6 6 6 7 7 7 6 6 7 7 7 7 7 6 6 7 7 7 7 7 7 6 6 5 5 5 4
9 8 8 8 8 9 9 10 11 11 11 9 7 6 5 5 5 5 5 6 6 6 5 5 6 7 6 6 6 7 6 6 7 6 6 7 6 6 5 5 4 4 4 3
8 8 8 7 8 8 8 9 9 10 10 8 6 5 5 4 4 4 4 5 5 5 5 5 6 6 7 6 7 7 7 7 7 7 7 7 6 6 5 5 4 4 4 3
8 7 7 6 6 7 7 7 7 8 8 7 5 4 5 5 5 4 4 4 5 5 5 5 6 6 6 7 7 7 7 7 7 7 7 7 7 7 6 6 5 5 4 3
9 7 6 6 5 5 6 6 6 7 7 7 6 5 5 5 5 5 5 5 5 5 5 6 6 6 6 7 7 7 7 7 8 7 8 8 8 8 7 7 6 5 4 4
9 7 6 5 4 4 4 5 5 6 6 7 7 6 6 6 6 6 6 6 6 6 6 6 7 6 7 7 7 8 8 8 8 8 8 9 8 8 8 8 7 6 5 4
9 8 6 4 2 2 3 3 4 5 5 6 6 7 7 7 6 6 6 6 7 7 7 7 7 7 7 7 8 8 8 8 8 8 8 9 9 8 7 7 7 6 6 5
9 8 6 4 2 1 2 2 3 4 4 5 6 6 6 7 7 7 7 6 6 7 7 8 8 8 8 8 8 8 8 8 8 9 9 9 8 8 7 7 7 6 6 5
10 9 7 5 3 2 0 1 2 3 4 4 5 6 6 6 7 7 8 7 7 7 7 7 7 8 8 8 8 8 8 8 8 9 9 9 8 8 7 7 6 6 5 5
11 9 8 7 5 3 1 1 2 3 4 4 4 5 5 6 6 7 7 7 7 7 7 7 7 7 8 8 8 8 8 8 8 8 8 8 8 8 7 6 6 6 6 6
11 10 9 7 6 4 3 2 2 3 3 4 4 5 5 6 6 6 6 6 6 6 6 6 7 7 7 8 8 8 8 8 8 8 8 8 8 8 7 7 7 7 7 7
12 11 10 8 7 5 4 2 2 2 3 3 4 4 4 5 5 5 6 6 6 6 6 6 6 6 7 7 7 8 8 8 8 9 8 8 8 8 9 9 9 8 8 8
13 12 11 9 8 6 4 3 2 2 2 3 3 3 4 4 4 5 5 6 6 7 7 7 6 7 7 7 8 8 8 9 9 9 9 9 9 9 10 10 10 10 10 10
13 13 11 10 9 7 5 4 3 2 1 2 2 3 3 4 4 4 5 5 6 6 7 7 7 8 8 8 8 9 9 10 10 10 10 10 11 11 11 12 12 12 13 13
14 12 11 11 9 8 6 5 3 2 0 1 1 2 3 3 4 4 5 5 6 6 7 8 8 9 9 9 10 10 11 11 11 12 12 12 13 13 13 14 14 15 15 15
13 12 11 10 9 8 7 5 3 2 1 1 1 2 3 3 4 4 5 5 6 7 8 8 9 10 10 11 11 12 12 13 13 14 14 14 15 15 15 16 16 17 17 18
Wind_Direction
290 290 290 289 290 287 286 286 287 291 292 290 289 291 290 287 284 283 283 282 282 283 283 285 284 284 286 286 283 282 283 282 280 280 280 280 280 280 279 279 280 279 277 275
289 288 287 290 292 291 289 287 288 292 293 294 293 292 293 291 288 287 286 285 286 287 287 288 288 289 289 290 289 288 287 286 285 284 283 282 281 280 280 279 279 277 276 276
288 289 290 290 293 294 292 293 292 293 294 293 293 292 293 293 290 288 288 288 289 289 288 291 293 294 292 291 291 290 290 289 287 287 285 282 280 280 279 279 279 278 277 277
289 288 290 295 294 294 293 293 294 294 296 297 297 292 292 292 292 290 288 288 290 290 289 292 294 294 292 291 292 292 293 291 289 288 287 284 282 281 278 277 278 278 278 278
290 291 293 294 295 296 297 297 297 297 296 297 298 296 295 295 293 291 291 291 293 293 291 293 295 297 296 295 294 294 294 292 289 287 286 285 284 283 280 278 278 277 277 277
292 292 295 298 295 296 298 299 298 298 298 298 300 297 297 297 298 295 295 294 294 294 294 295 297 299 298 296 295 295 296 296 293 290 288 287 286 285 283 280 280 279 277 274
294 296 297 297 297 298 299 302 301 302 302 301 300 300 300 298 298 300 301 300 298 298 298 300 300 301 300 299 298 297 299 297 296 293 292 292 291 289 287 286 283 279 276 273
290 296 301 299 299 300 302 302 303 304 302 300 300 300 301 302 301 301 305 305 302 305 307 307 305 305 306 306 307 308 306 302 297 294 295 295 296 296 296 292 285 281 276 274
288 294 299 300 301 302 303 305 308 308 305 304 304 302 304 307 306 305 307 312 313 315 314 316 315 315 317 315 314 315 314 313 310 306 304 303 303 303 301 297 287 283 278 275
282 291 299 303 305 307 309 311 312 312 311 312 308 304 306 309 312 310 315 321 327 329 326 324 327 328 326 325 326 323 323 324 321 318 314 311 311 311 309 305 295 286 280 275
277 286 294 302 307 312 315 317 318 318 318 317 313 311 311 310 315 319 320 322 328 331 330 331 336 339 339 340 339 338 341 339 335 329 323 320 320 319 319 320 309 293 287 278
272 282 293 302 309 314 318 322 326 328 326 324 321 316 316 314 318 322 327 332 333 336 335 340 345 344 344 346 350 354 351 351 349 344 343 338 334 331 330 333 328 316 304 286
269 279 289 300 310 315 318 326 333 335 333 332 328 326 324 325 330 335 343 347 346 347 349 351 355 360 359 360 358 357 357 358 359 360 359 357 353 348 344 343 342 341 332 304
262 273 285 297 306 311 315 325 333 337 341 343 339 340 341 345 356 6 6 5 2 0 2 6 6 8 11 13 10 12 12 11 11 12 8 8 9 7 6 8 7 8 13 17
253 262 277 290 302 311 320 328 334 342 351 357 359 0 7 11 13 17 19 19 14 11 13 14 14 13 14 15 16 16 15 18 21 24 26 25 22 20 24 28 26 27 33 42
244 252 267 282 298 315 329 340 347 354 3 9 12 15 18 23 27 30 31 33 32 29 31 28 25 22 20 19 18 21 23 23 24 26 27 29 31 32 34 35 33 35 41 46
233 241 253 264 289 320 331 344 356 6 16 23 26 28 33 36 37 39 38 39 40 39 42 40 37 34 32 28 28 28 27 27 29 30 33 35 35 37 41 41 38 40 45 49
224 231 239 244 273 330 352 357 6 13 21 28 31 35 43 47 43 42 43 48 52 50 47 42 38 38 36 35 33 32 32 32 33 34 35 33 31 33 36 36 37 43 51 51
221 224 226 229 237 311 9 22 31 34 39 40 43 46 50 51 49 50 50 52 53 51 48 47 44 42 40 38 37 39 38 36 35 33 32 30 29 29 32 34 35 38 40 43
215 213 212 212 216 222 46 48 54 49 52 53 49 48 53 57 57 56 55 54 53 50 45 42 39 39 39 39 37 34 33 32 31 29 29 31 29 27 29 29 28 27 25 22
205 203 200 200 200 196 166 95 79 68 57 51 49 51 55 59 59 57 53 51 50 47 44 41 37 34 30 28 28 27 26 27 27 27 25 23 21 19 16 13 7 2 359 356
198 195 192 192 191 181 156 123 97 71 54 54 60 60 58 58 56 50 46 43 41 39 35 33 31 29 26 23 23 22 21 18 15 12 11 11 10 7 3 358 352 347 344 342
193 190 187 184 182 178 166 146 111 74 64 64 62 60 55 50 44 37 34 33 33 30 27 24 21 18 15 13 13 13 11 9 6 2 359 356 355 354 351 347 342 338 334 329
188 187 185 184 183 182 181 179 151 107 79 66 61 57 50 43 35 29 27 27 26 25 23 20 15 10 4 1 2 2 1 357 355 352 351 348 344 341 338 337 334 330 325 320
188 188 187 188 189 188 184 173 158 135 91 63 53 46 40 30 23 20 18 17 14 11 10 9 7 5 2 357 354 352 350 348 346 343 340 338 336 333 329 325 323 320 317 314
189 189 188 189 188 186 183 179 173 166 116 31 29 28 19 13 13 10 5 3 3 360 359 359 358 355 352 349 345 343 340 338 335 333 330 327 325 323 321 319 316 314 312 310
187 187 185 184 186 188 189 188 189 196 235 317 358 1 359 1 4 0 357 356 354 353 352 351 348 346 343 340 339 336 334 333 332 331 329 327 324 321 319 318 317 314 312 309
Height
5796 5795 5794 5793 5792 5790 5789 5787 5786 5785 5783 5782 5781 5779 5777 5776 5774 5773 5773 5772 5771 5769 5768 5767 5765 5764 5762 5760 5758 5756 5754 5752 5751 5749 5748 5747 5746 5745 5744 5743 5742 5741 5740 5739
5793 5791 5790 5789 5788 5787 5785 5784 5782 5781 5780 5778 5776 5775 5773 5772 5770 5769 5768 5767 5766 5764 5762 5761 5759 5758 5756 5754 5752 5750 5748 5746 5744 5743 5741 5740 5739 5738 5737 5736 5735 5734 5734 5733
5789 5788 5787 5786 5785 5783 5782 5780 5779 5777 5776 5774 5773 5771 5769 5768 5766 5765 5763 5762 5761 5759 5757 5756 5754 5752 5750 5748 5746 5744 5742 5739 5738 5736 5735 5733 5733 5732 5731 5730 5729 5728 5728 5727
5785 5785 5783 5785 5781 5780 5778 5777 5775 5773 5772 5771 5769 5768 5766 5764 5762 5760 5759 5757 5755 5754 5752 5751 5749 5747 5745 5742 5740 5738 5736 5734 5732 5731 5729 5728 5727 5726 5725 5724 5723 5722 5722 5721
5782 5780 5780 5780 5778 5776 5775 5774 5772 5770 5768 5767 5765 5764 5762 5760 5758 5756 5754 5752 5751 5749 5747 5746 5744 5742 5739 5737 5735 5733 5731 5729 5727 5725 5724 5722 5721 5720 5719 5718 5717 5717 5716 5716
5778 5777 5776 5777 5775 5772 5772 5770 5768 5766 5765 5763 5761 5760 5759 5756 5754 5752 5750 5748 5746 5744 5743 5741 5738 5736 5735 5732 5730 5728 5726 5724 5722 5721 5719 5718 5716 5715 5714 5713 5712 5712 5711 5711
5775 5773 5773 5773 5771 5770 5769 5768 5765 5763 5761 5759 5757 5756 5754 5752 5749 5747 5746 5744 5742 5740 5738 5736 5734 5732 5730 5728 5726 5724 5722 5720 5718 5717 5716 5714 5713 5711 5710 5709 5709 5708 5707 5707
5772 5770 5772 5769 5767 5766 5766 5763 5761 5759 5757 5755 5753 5751 5749 5747 5745 5743 5742 5740 5738 5736 5734 5732 5730 5728 5726 5724 5722 5720 5718 5716 5715 5714 5712 5711 5710 5708 5707 5706 5706 5705 5705 5704
5770 5770 5768 5766 5764 5763 5761 5759 5757 5755 5753 5751 5749 5747 5745 5744 5742 5740 5739 5737 5735 5733 5731 5729 5727 5725 5723 5721 5719 5717 5716 5714 5713 5712 5710 5709 5707 5706 5705 5704 5703 5703 5703 5702
5766 5766 5765 5763 5761 5759 5758 5756 5754 5751 5749 5747 5745 5744 5742 5740 5739 5738 5736 5735 5733 5731 5729 5727 5725 5723 5721 5720 5718 5716 5714 5713 5711 5710 5709 5707 5706 5705 5704 5702 5702 5701 5701 5701
5764 5763 5762 5761 5759 5757 5755 5753 5751 5749 5746 5744 5742 5740 5739 5738 5736 5735 5734 5733 5731 5729 5728 5726 5724 5722 5720 5719 5717 5715 5714 5712 5711 5709 5708 5706 5705 5704 5703 5701 5701 5700 5700 5699
5762 5761 5760 5759 5757 5755 5753 5751 5749 5746 5744 5741 5739 5738 5737 5736 5734 5734 5732 5731 5730 5728 5726 5725 5723 5722 5720 5718 5717 5715 5713 5712 5710 5709 5707 5706 5705 5703 5702 5701 5700 5699 5699 5699
5759 5758 5757 5756 5755 5753 5751 5749 5747 5744 5742 5739 5738 5736 5735 5734 5733 5732 5731 5730 5729 5727 5726 5724 5723 5721 5719 5718 5716 5715 5713 5712 5710 5709 5707 5706 5705 5703 5702 5701 5700 5700 5699 5699
5756 5755 5755 5754 5752 5751 5749 5747 5745 5743 5740 5738 5736 5735 5734 5733 5732 5731 5730 5729 5728 5727 5725 5724 5723 5721 5720 5719 5717 5716 5714 5713 5711 5710 5708 5707 5705 5704 5703 5702 5701 5701 5700 5700
5753 5753 5753 5752 5750 5749 5748 5746 5744 5742 5740 5738 5736 5735 5734 5733 5732 5731 5730 5729 5728 5727 5725 5724 5723 5722 5721 5719 5718 5717 5715 5714 5712 5711 5709 5708 5707 5705 5704 5703 5703 5702 5702 5701
5750 5750 5750 5750 5749 5748 5746 5745 5743 5741 5740 5738 5736 5735 5734 5733 5732 5731 5730 5729 5728 5727 5726 5725 5724 5723 5721 5720 5719 5718 5716 5715 5714 5712 5711 5710 5708 5707 5706 5705 5704 5704 5703 5703
5747 5748 5748 5748 5747 5746 5745 5744 5742 5741 5740 5738 5737 5736 5734 5733 5733 5732 5731 5730 5729 5728 5727 5726 5725 5724 5723 5722 5720 5719 5718 5717 5715 5714 5713 5711 5710 5709 5708 5707 5706 5705 5705 5705
5744 5745 5746 5746 5746 5745 5744 5743 5742 5741 5740 5739 5738 5736 5735 5734 5733 5733 5732 5731 5730 5730 5729 5728 5727 5725 5724 5723 5722 5721 5720 5718 5717 5716 5715 5713 5712 5711 5710 5709 5708 5708 5707 5707
5742 5743 5744 5744 5744 5744 5743 5743 5742 5741 5740 5739 5738 5737 5736 5736 5735 5734 5733 5732 5732 5731 5730 5729 5729 5727 5726 5725 5724 5723 5722 5720 5719 5718 5717 5716 5714 5713 5712 5711 5711 5710 5709 5709
5739 5740 5741 5742 5743 5743 5743 5743 5742 5741 5741 5740 5739 5738 5738 5737 5736 5735 5734 5734 5733 5732 5732 5731 5730 5729 5728 5727 5726 5724 5723 5722 5721 5720 5718 5717 5716 5715 5714 5713 5713 5712 5711 5710
5736 5738 5739 5741 5742 5742 5742 5742 5742 5741 5741 5741 5740 5739 5739 5738 5737 5737 5736 5736 5735 5734 5733 5732 5731 5731 5730 5728 5727 5726 5725 5723 5722 5721 5720 5719 5718 5717 5716 5715 5714 5713 5712 5711
5734 5736 5738 5739 5740 5741 5742 5742 5742 5742 5741 5741 5741 5740 5740 5739 5739 5738 5738 5737 5736 5735 5734 5733 5733 5732 5731 5730 5728 5727 5726 5725 5723 5722 5721 5720 5718 5717 5716 5715 5714 5713 5712 5711
5732 5734 5736 5738 5739 5740 5741 5742 5742 5742 5742 5741 5741 5741 5741 5740 5740 5739 5739 5738 5737 5736 5735 5734 5733 5733 5732 5730 5729 5728 5727 5725 5724 5723 5721 5720 5719 5718 5716 5715 5714 5713 5712 5711
5730 5732 5734 5736 5738 5739 5741 5741 5742 5742 5742 5742 5742 5741 5741 5741 5740 5740 5739 5738 5738 5737 5736 5735 5734 5733 5732 5731 5729 5728 5727 5726 5724 5723 5722 5720 5719 5717 5716 5714 5713 5712 5710 5709
5728 5731 5733 5735 5737 5738 5740 5741 5741 5742 5742 5742 5742 5742 5741 5741 5741 5740 5739 5739 5738 5737 5736 5735 5734 5733 5732 5731 5729 5728 5727 5725 5724 5723 5721 5719 5718 5716 5714 5713 5711 5710 5708 5707
5727 5729 5731 5734 5736 5737 5739 5740 5741 5742 5742 5742 5742 5742 5741 5741 5740 5740 5739 5739 5738 5737 5736 5735 5734 5733 5732 5730 5729 5728 5726 5725 5723 5721 5720 5718 5716 5714 5713 5711 5709 5707 5705 5704
5725 5728 5730 5732 5734 5736 5738 5739 5740 5741 5741 5742 5742 5741 5741 5741 5740 5740 5739 5738 5738 5737 5736 5735 5734 5732 5731 5730 5728 5727 5725 5723 5721 5719 5718 5716 5714 5712 5710 5708 5706 5704 5702 5700